Location: Oshawa
(43.9000°N, 78.8670°W)
Time: 03:20:31
(UTC-04:00)

Iridium 98 - Visible Passes

Search period start: 19 April 2014 00:00
Search period end: 29 April 2014 00:00
Orbit: 747 x 750 km, 86.4° (Epoch: 18 April)

Date Brightness Start Highest point End Pass type
(mag) Time Alt. Az. Time Alt. Az. Time Alt. Az.
19 Apr 6.2 20:24:54 10° SSE 20:29:22 33° E 20:33:52 10° NNE visible
19 Apr 7.4 22:05:07 10° SW 22:09:28 29° WNW 22:13:52 10° NNW visible
20 Apr 5.9 21:22:14 10° SSW 21:27:14 63° W 21:32:16 10° N visible
21 Apr 5.5 20:40:15 10° SSE 20:45:12 59° E 20:50:11 10° N visible
21 Apr 8.2 22:22:33 10° WSW 22:25:45 17° WNW 22:28:58 10° NNW visible
22 Apr 7.1 21:38:44 10° SW 21:43:20 35° W 21:47:58 10° NNW visible
23 Apr 5.7 20:56:06 10° S 21:01:09 77° W 21:06:14 10° N visible
24 Apr 8.1 21:55:52 10° WSW 21:59:34 20° WNW 22:03:17 10° NNW visible
25 Apr 6.8 21:12:26 10° SSW 21:17:12 42° W 21:22:01 10° N visible
26 Apr 8.6 22:14:21 10° W 22:15:55 11° WNW 22:17:30 10° NW visible
27 Apr 7.9 21:29:18 10° SW 21:33:23 24° WNW 21:37:29 10° NNW visible
28 Apr 6.5 20:46:10 10° SSW 20:51:05 52° W 20:56:02 10° N visible
